Tracking 29511 objects as of 17-Sep-2024
HD Live streaming from Space Station
objects crossing your sky now

NNSS 19 (TRANSIT 19)

Track NNSS 19 (TRANSIT 19) now!
10-day predictions
NNSS 19 (TRANSIT 19) is classified as:


NORAD ID: 4507
Int'l Code: 1970-067A
Perigee: 946.7 km
Apogee: 1,203.9 km
Inclination: 90.0 °
Period: 106.6 minutes
Semi major axis: 7446 km
RCS: 1.5637 m2 (large)
Launch date: August 27, 1970
Source: United States (US)
Launch site: AIR FORCE WESTERN TEST RANGE (AFWTR)
Your satellite tracking list
Your tracking list is empty




NASA's NSSDC Master Catalog

Two Line Element Set (TLE):
1 04507U 70067A   24260.84296011  .00000273  00000-0  36945-3 0  9993
2 04507  89.9712 234.9943 0172749 161.6963 199.0511 13.51111826661198
Source of the keplerian elements: AFSPC